This demonstration page uses our WeatherBlox Daily Observations layout. Learn more.

Left ArrowRight Arrow

39.29038, -76.61219

Hourly Observations for April 22, 2022

Temp ( °F °C ) Dew Point ( °F °C ) Humidity (%) Winds ( mph kmh ) Pressure ( in mb ) Visibility ( mi km ) Precip ( " mm )
12:54 am 00:54 Mostly Cloudy 55 12.8 46 7.8 72 72 Calm 30.36 1028 10 16 0.00 0.00
1:54 am 01:54 Partly Cloudy 52 11.1 46 7.8 80 80 Calm 30.35 1028 10 16 0.00 0.00
2:54 am 02:54 Mostly Clear 52 11.1 46 7.8 80 80 Calm 30.35 1028 10 16 0.00 0.00
3:54 am 03:54 Clear 47 8.3 44 6.7 90 90 W 3 6 30.35 1028 10 16 0.00 0.00
4:54 am 04:54 Clear 46 7.8 43 6.1 89 89 W 3 6 30.35 1028 10 16 0.00 0.00
5:54 am 05:54 Clear 48 8.9 45 7.2 89 89 W 3 6 30.36 1028 10 16 0.00 0.00
6:54 am 06:54 Mostly Sunny 48 8.9 44 6.7 86 86 Calm 30.38 1029 10 16 0.00 0.00
7:54 am 07:54 Partly Cloudy 57 13.9 50 10 78 78 Calm 30.41 1030 10 16 0.00 0.00
8:54 am 08:54 Partly Cloudy 66 18.9 50 10 56 56 VRB 6 9 30.42 1030 10 16 0.00 0.00
9:54 am 09:54 Mostly Cloudy 68 20 46 7.8 45 45 WNW 10 17 30.42 1030 10 16 0.00 0.00
10:54 am 10:54 Mostly Cloudy 71 21.7 42 5.6 35 35 NW 8 13 30.42 1030 10 16 0.00 0.00
11:54 am 11:54 Mostly Cloudy 73 22.8 38 3.3 28 28 NW 15 24 30.40 1030 10 16 0.00 0.00
12:54 pm 12:54 Mostly Cloudy 73 22.8 37 2.8 27 27 NW 15 24 30.40 1029 10 16 0.00 0.00
1:54 pm 13:54 Mostly Cloudy 74 23.3 34 1.1 23 23 N 6 9 30.39 1029 10 16 0.00 0.00
2:54 pm 14:54 Mostly Cloudy 75 23.9 32 0 21 21 N 8 13 30.37 1028 10 16 0.00 0.00
3:54 pm 15:54 Mostly Cloudy 75 23.9 28 -2.2 18 18 NNW 9 15 30.35 1028 10 16 0.00 0.00
4:54 pm 16:54 Cloudy 74 23.3 28 -2.2 18 18 NW 8 13 30.35 1028 10 16 0.00 0.00
5:54 pm 17:54 Mostly Cloudy 71 21.7 30 -1.1 22 22 N 7 11 30.35 1028 10 16 0.00 0.00
6:54 pm 18:54 Mostly Cloudy 70 21.1 30 -1.1 23 23 N 6 9 30.34 1028 10 16 0.00 0.00
7:54 pm 19:54 Mostly Cloudy 68 20 31 -0.6 25 25 NE 3 6 30.35 1028 10 16 0.00 0.00
8:54 pm 20:54 Partly Cloudy 63 17.2 38 3.3 40 40 ENE 6 9 30.36 1028 10 16 0.00 0.00
9:54 pm 21:54 Partly Cloudy 62 16.7 38 3.3 41 41 SE 6 9 30.37 1029 10 16 0.00 0.00
10:54 pm 22:54 Mostly Cloudy 59 15 41 5 51 51 SE 3 6 30.36 1028 10 16 0.00 0.00
11:54 pm 23:54 Cloudy 59 15 41 5 51 51 Calm 30.37 1029 10 16 0.00 0.00

Powered by AerisWeather